Regional Weather Roundup
Issued by NWS

Home | Current Version | Previous Version | Graphics & Text | Print | Product List | Glossary On
Versions: 1 2 3 4 5 6 7 8 9 10 11 12 13 14 15 16 17 18 19 20 21 22 23 24 25 26 27
000
ASUS45 KSLC 282110
RWRUT

UTAH REGIONAL WEATHER ROUNDUP
NATIONAL WEATHER SERVICE SALT LAKE CITY UT
300 PM MDT SUN AUG 28 2016

UTZ001>011-023>025-282200-

NORTHERN UTAH

CITY           SKY/WX    TMP DP  RH WIND       PRES   REMARKS
BRIGHAM CITY     N/A     86  31  14 S3        30.16F
HILL AFB       SUNNY     85  39  19 NW8       30.18F
LOGAN          SUNNY     84  36  18 CALM      30.16S
OGDEN          SUNNY     87  37  17 W7        30.16F
PROVO AIRPORT  MOSUNNY   84  36  17 VRB5      30.16F
SALT LAKE CITY MOSUNNY   90  35  14 SW5       30.13F
VERNAL         SUNNY     81  41  24 W6        30.19F
WENDOVER       SUNNY     86  36  16 SE8       30.16F
HEBER CITY     SUNNY     86  28  12 W6        30.19F
WEST JORDAN    MOSUNNY   86  40  20 N7        30.17F

$$

UTZ012>022-026-027-282200-

SOUTHERN/CENTRAL UTAH

CITY           SKY/WX    TMP DP  RH WIND       PRES   REMARKS
BLANDING       MOSUNNY   70  47  43 S12       30.33F
BRYCE CANYON   MOSUNNY   68  43  40 VRB3      30.39S
CEDAR CITY     SUNNY     82  39  21 VRB6      30.23F
MILFORD        SUNNY     87  30  13 NW5       30.18F
MOAB/CYNLANDS  MOSUNNY   81  45  28 SE8       30.17F
PRICE          MOSUNNY   81  36  19 S10       30.25F
ST GEORGE      CLEAR     84  54  34 CALM      30.11F

$$

REGIONAL REPORTS     COLORADO/ARIZONA

CITY           SKY/WX    TMP DP  RH WIND       PRES   REMARKS
CRAIG, CO      SUNNY     83  26  12 VRB7      30.24F
GRAND JUNCTION CLOUDY    73  51  46 SW6       30.22F
RIFLE          CLOUDY    78  46  32 N9        30.23S
MONTROSE       SUNNY     76  43  30 N12       30.24F
CORTEZ         CLOUDY    72  49  44 W3        30.27F
PAGE, AZ       SUNNY     81  43  26 CALM      30.18F
GRAND CANYON   SUNNY     72  41  32 E8        30.34F
KINGMAN        SUNNY     88  49  25 CALM      30.12F
FLAGSTAFF      MOSUNNY   70  46  42 E9        30.33S

$$

REGIONAL REPORTS    NEVADA/IDAHO/WYOMING

CITY           SKY/WX    TMP DP  RH WIND       PRES   REMARKS
LAS VEGAS, NV  MOSUNNY   92  46  20 SE7       30.02F
ELY            SUNNY     82  23  11 VRB3      30.27F
ELKO           SUNNY     88  20   8 VRB5      30.20S
POCATELLO, ID  SUNNY     86  33  15 SW12G23   30.16F
BURLEY         SUNNY     81  44  27 W9        30.15S
EVANSTON, WY   PTSUNNY   79  26  14 NW13G18   30.31F
ROCK SPRINGS   SUNNY     80  21  11 W13G21    30.27F

$$




USA.gov is the U.S. government's official web portal to all federal, state and local government web resources and services.